Flag for Romania Weather past 2 weeks in Constanța, Romania

Now
81 °F

Partly sunny.


Feels Like: 84 °F
Forecast: 68 / 85 °F
Wind: 2 mph from Northeast

Location: Constanta

Current Time: Jul 29, 2014 at 12:49:05 PM

Latest Report: Jul 29, 2014 at 12:00 PM


Visibility: 6 mi

Pressure: 29.90 "Hg

Humidity: 68%

Dew point: 69 °F

Location of ConstanțaLocation

Historic Weather in Constanța — Graph

°F

Constanța temperature yesterday

Maximum temperature yesterday: 85 °F (at 3:00 PM)
Minimum temperature yesterday: 69 °F (at 6:00 AM)
Average temperature yesterday: 78 °F

Past Weeks' High & Low Weather Summary

 TemperatureHumidityPressure
High85 °F (Jul 27, 1:00 PM)96% (Jul 23, 7:00 AM)29.99 "Hg (Jul 23, 7:00 AM)
Low66 °F (Jul 17, 6:00 AM)43% (Jul 14, 7:00 PM)29.72 "Hg (Jul 24, 3:00 AM)
Average76 °F74%29.85 "Hg
* Reported Jul 14 11:00 AM — Jul 29 11:00 AM, Constanța, Weather by CustomWeather, © 2014

Note: Actual official high and low records may vary slightly from our data, if they occured in-between our weather recording intervals... More about our weather records

Advertising

Constanța weather history for previous 24 hours

 ConditionsComfort  
Time TempWeatherWind HumidityBarometerVisibility
11:00 AM
Jul 29
81 °FPartly sunny.2 mph70%29.89 "Hg6 mi
10:00 AM82 °FPartly sunny.1 mph70%29.88 "Hg6 mi
9:00 AM81 °FPartly sunny.1 mph73%29.88 "Hg6 mi
8:00 AM79 °FScattered clouds.1 mph74%29.88 "Hg6 mi
7:00 AM78 °FPassing clouds.1 mph78%29.87 "Hg6 mi
6:00 AM77 °FSunny.1 mph77%29.87 "Hg6 mi
5:00 AM77 °FClear.No wind79%29.88 "Hg6 mi
4:00 AM77 °FClear.No wind83%29.88 "Hg6 mi
3:00 AM77 °FClear.1 mph85%29.89 "Hg6 mi
2:00 AM77 °FClear.1 mph86%29.89 "Hg6 mi
1:00 AM77 °FClear.1 mph85%29.90 "Hg6 mi
12:00 AM78 °FClear.2 mph83%29.90 "Hg6 mi
11:00 PM
Jul 28
78 °FClear.1 mph81%29.90 "Hg6 mi
10:00 PM78 °FPassing clouds.1 mph80%29.91 "Hg6 mi
9:00 PM78 °FPassing clouds.No wind82%29.91 "Hg6 mi
8:00 PM80 °FScattered clouds.1 mph83%29.91 "Hg6 mi
7:00 PM81 °FPassing clouds.1 mph79%29.92 "Hg6 mi
6:00 PM81 °FPassing clouds.3 mph76%29.93 "Hg6 mi
5:00 PM82 °FPassing clouds.5 mph75%29.94 "Hg6 mi
4:00 PM82 °FPassing clouds.2 mph76%29.94 "Hg6 mi
3:00 PM85 °FPassing clouds.No wind69%29.95 "Hg6 mi
2:00 PM83 °FPassing clouds.2 mph71%29.95 "Hg6 mi
1:00 PM82 °FSunny.2 mph73%29.96 "Hg6 mi
12:00 PM82 °FPassing clouds.2 mph69%29.97 "Hg6 mi
Weather by CustomWeather, © 2014

See weather overviewHow to use our weather pages